Location: Bamazo
(6.7448°N, 10.8189°W)
Time: 01:06:02
(UTC+00:00)

H-2A R/B - Pass Details

Date: 18 September 2020
Orbit: 734 x 836 km, 98.2° (Epoch: 21 October)

Event Time Altitude Azimuth Distance (km) Brightness Sun altitude
Exits shadow 19:08:50 - 97° (E) 2,307 3.8 -7.7°
Reaches altitude 10° 19:09:27 10° 90° (E) 2,231 3.7 -7.8°
Maximum altitude 19:10:40 11° 75° (ENE) 2,172 3.7 -8.1°
Drops below altitude 10° 19:11:54 10° 60° (ENE) 2,233 3.9 -8.4°
Sets 19:16:07 0° 25° (NNE) 3,166 5.0 -9.5°
